This is the latest recevied weather packets stored in our database for station/object JG6YPS-13. If no packets are shown the sender has not sent any weather packets the latest 10 day(s).
| Time | Temp. | Humidity | Pressure | Rain* | Wind** | Luminosity | Snow |
|---|---|---|---|---|---|---|---|
| 1777464779 | 16.67° C | 84% | 1017.5 hPa | 0 mm | - | - | - |
| 1777464179 | 16.67° C | 83% | 1017.4 hPa | 0 mm | - | - | - |
| 1777463580 | 16.67° C | 84% | 1017.5 hPa | 0 mm | - | - | - |
| 1777462980 | 16.67° C | 84% | 1017.3 hPa | 0 mm | - | - | - |
| 1777462381 | 16.67° C | 83% | 1017.2 hPa | 0 mm | - | - | - |
| 1777461781 | 16.67° C | 80% | 1016.9 hPa | 0 mm | - | - | - |
| 1777461182 | 17.22° C | 81% | 1016.8 hPa | 0 mm | - | - | - |
| 1777460582 | 16.67° C | 79% | 1016.5 hPa | 0 mm | - | - | - |
| 1777459983 | 17.22° C | 76% | 1016.3 hPa | 0 mm | - | - | - |
| 1777459383 | 17.22° C | 76% | 1016.1 hPa | 0 mm | - | - | - |
| 1777458784 | 17.22° C | 77% | 1016 hPa | 0 mm | - | - | - |
| 1777458184 | 17.22° C | 75% | 1016 hPa | 0 mm | - | - | - |
| 1777457585 | 17.78° C | 73% | 1015.8 hPa | 0 mm | - | - | - |
| 1777456985 | 17.78° C | 72% | 1015.8 hPa | 0 mm | - | - | - |
| 1777456385 | 17.78° C | 71% | 1015.7 hPa | 0 mm | - | - | - |
| 1777455786 | 18.33° C | 70% | 1015.7 hPa | 0 mm | - | - | - |
| 1777455186 | 18.33° C | 68% | 1015.7 hPa | 0 mm | - | - | - |
| 1777454586 | 18.33° C | 68% | 1015.6 hPa | 0 mm | - | - | - |
| 1777453987 | 18.89° C | 66% | 1015.4 hPa | 0 mm | - | - | - |
| 1777453387 | 18.89° C | 66% | 1015.4 hPa | 0 mm | - | - | - |
| 1777452788 | 18.89° C | 66% | 1015.2 hPa | 0 mm | - | - | - |
| 1777452188 | 18.89° C | 66% | 1015.2 hPa | 0 mm | - | - | - |
| 1777451588 | 19.44° C | 65% | 1015.2 hPa | 0 mm | - | - | - |
| 1777450989 | 20° C | 63% | 1014.9 hPa | 0 mm | - | - | - |
| 1777450389 | 20° C | 62% | 1014.8 hPa | 0 mm | - | - | - |
* Rain latest hour (hover to see other rain measurements)
** Current wind speed in m/s (hover to see current wind gust speed)